Location: Most
(50.5133°N, 13.6207°E)
Time: 15:23:27
(UTC+02:00)

Nauka - Pass Details

Date: 24 September 2021
Orbit: 417 x 423 km, 51.6° (Epoch: 26 October)

Event Time Altitude Azimuth Distance (km) Brightness Sun altitude
Rises 20:55:53 0° 274° (W) 2,365 ? -19.0°
Reaches altitude 10° 20:58:00 10° 277° (W) 1,502 ? -19.3°
Maximum altitude 21:01:22 71° 2° (N) 449 ? -19.8°
Enters shadow 21:01:34 68° 33° (NNE) 458 ? -19.8°
